GFSNW_850_spd_000.txt.gz
Wind_Speed
7 5 7 10 12 5 7 6 2 9 13 5 4 3 3 2 1 3 3 4 4 3 2 3 2 3 1 4 5 5 1 2 3 2 3 3 1 1 5 3 4 3 3 8
5 5 5 8 11 9 6 4 3 10 8 3 4 3 4 4 3 4 2 3 4 2 3 3 2 1 1 4 4 3 5 2 2 5 3 2 4 4 4 1 2 15 5 7
3 3 3 5 7 10 6 3 2 6 10 7 4 4 4 4 6 4 6 4 3 3 3 5 3 2 2 1 2 4 3 1 5 3 4 3 4 5 10 12 8 13 18 22
2 4 3 2 4 7 4 4 3 3 3 4 4 3 2 3 2 3 5 3 3 3 3 2 2 1 1 2 3 3 2 5 7 12 14 12 14 15 17 17 21 18 24 25
3 2 4 4 2 5 6 3 2 5 4 2 1 1 2 4 3 2 1 3 3 3 3 4 2 1 1 1 2 1 1 5 3 12 13 12 17 19 21 24 25 27 28 29
4 1 2 3 2 1 3 5 5 3 2 3 2 1 2 4 2 2 4 2 3 3 3 2 1 3 5 3 3 2 2 3 5 11 4 12 14 19 21 16 18 16 16 17
5 3 1 1 3 3 2 4 3 1 2 2 2 2 2 2 1 3 1 3 1 3 4 2 2 6 10 13 15 14 8 4 3 8 8 7 3 2 7 12 16 16 18 15
8 4 4 2 1 3 5 3 3 3 2 1 1 3 1 2 3 3 3 1 2 5 2 2 4 1 2 1 2 8 14 9 4 4 7 15 17 7 6 8 14 11 8 8
8 9 6 4 3 4 5 6 6 1 2 3 5 5 7 3 3 2 1 2 2 4 2 1 0 2 3 3 2 9 4 11 7 1 5 6 3 2 2 2 16 9 10 10
11 10 9 8 5 4 3 4 7 5 1 3 3 1 1 5 2 2 1 2 3 5 2 2 4 4 1 4 4 4 4 4 15 13 9 10 11 10 1 8 6 12 7 2
12 12 11 11 10 8 8 7 7 10 7 7 10 11 8 6 5 3 8 3 1 2 3 2 3 5 5 3 2 5 9 8 6 7 6 11 9 4 7 2 7 7 4 5
14 13 14 13 13 12 10 10 10 10 10 5 7 10 12 14 11 8 14 2 4 8 3 3 2 3 2 6 5 6 7 11 5 10 8 7 9 8 7 4 4 5 7 11
14 14 13 13 12 12 10 11 9 7 4 9 14 11 2 12 13 20 8 9 11 8 9 7 3 5 4 5 7 7 7 11 6 15 14 24 23 15 13 15 15 16 17 13
13 14 15 14 12 11 11 12 9 8 3 3 5 9 11 7 6 13 23 17 12 10 13 5 3 3 12 4 9 8 9 1 17 22 23 30 28 20 18 17 15 13 11 9
11 11 11 10 10 11 10 11 12 12 9 2 5 11 20 21 20 18 17 22 23 11 6 5 4 4 4 4 3 6 10 22 14 19 26 23 25 22 18 13 11 11 10 8
12 13 12 10 8 8 7 4 12 15 13 4 2 4 8 10 13 15 17 18 16 12 7 5 6 7 11 4 5 8 29 34 33 30 33 31 26 26 20 15 13 11 8 5
10 11 9 9 9 9 7 3 2 4 17 3 4 5 4 8 13 8 10 13 9 10 5 7 7 10 13 4 14 32 34 33 28 28 29 24 28 16 17 15 12 8 4 3
6 6 6 8 7 8 13 15 7 8 12 6 2 3 5 5 3 1 4 3 5 8 6 5 5 5 7 5 26 35 32 25 25 28 29 23 20 16 11 12 9 3 5 6
9 8 7 8 8 6 7 11 13 13 9 4 5 4 3 6 3 4 3 5 3 7 3 4 5 5 6 16 22 20 15 17 22 21 22 16 11 11 11 8 7 7 5 6
10 7 4 4 5 7 4 3 4 8 6 6 4 7 3 8 8 7 3 5 2 3 3 3 4 8 28 34 36 35 29 23 21 12 10 11 11 12 8 9 7 5 6 9
12 6 5 7 8 4 2 2 3 4 3 6 6 14 4 8 3 3 7 1 1 3 2 2 4 4 8 17 23 26 25 20 21 18 14 11 9 12 11 6 4 6 10 13
10 5 6 7 4 2 2 3 1 4 5 5 5 6 6 6 6 3 4 2 2 5 2 2 4 3 5 9 10 9 6 10 12 12 10 12 12 10 5 5 7 10 12 15
10 5 5 5 3 2 5 6 4 4 6 8 6 3 5 4 6 3 3 4 5 0 3 4 6 7 12 11 7 5 8 11 13 12 14 12 9 6 6 8 10 13 15 17
8 8 5 5 5 6 6 5 2 4 4 14 11 5 3 4 4 2 4 3 1 3 5 7 3 7 10 9 7 9 13 15 15 15 12 9 8 10 10 12 14 16 19 21
6 7 6 7 9 8 5 10 4 4 11 19 7 3 5 2 3 4 2 3 5 6 6 3 6 7 9 9 11 14 16 18 18 15 12 11 12 12 13 15 17 19 21 22
6 8 4 3 2 4 9 11 9 12 19 10 4 2 2 5 4 6 8 4 8 4 4 10 9 9 8 9 13 17 19 19 17 15 14 13 14 15 18 19 19 20 22 24
7 7 18 15 9 11 13 16 15 17 19 4 4 6 12 2 4 5 6 6 3 7 9 11 10 9 8 8 12 17 20 20 19 17 16 15 16 18 20 21 21 22 23 25

GFSNW_850_spd_003.txt.gz
Wind_Speed
9 8 10 12 11 3 6 5 2 16 11 4 3 7 5 5 4 3 3 5 8 7 3 4 3 5 4 2 2 2 3 3 6 3 4 5 4 4 8 4 5 4 4 6
7 8 9 10 10 9 7 4 4 16 9 6 9 7 7 7 3 6 3 4 4 2 4 4 5 4 5 5 4 4 1 1 5 4 2 1 3 5 8 7 3 10 5 4
7 7 8 9 9 10 8 3 1 7 13 8 9 7 6 5 5 6 6 4 5 6 6 7 6 5 5 4 5 6 1 2 4 5 6 4 3 6 8 11 9 12 15 20
7 6 5 7 8 9 7 4 3 2 3 7 9 7 2 7 4 4 8 4 8 5 4 8 5 5 6 5 3 3 3 3 5 7 8 9 11 13 14 17 20 17 21 21
4 5 3 3 5 6 7 2 3 4 4 4 6 7 6 6 5 6 4 5 5 6 7 8 6 4 1 2 2 2 1 4 5 10 13 13 14 18 20 22 23 23 23 25
3 5 2 3 2 4 4 6 7 1 1 2 2 2 3 1 1 4 5 3 4 5 6 5 4 2 1 1 1 4 3 3 5 5 4 8 13 20 22 18 18 14 16 19
5 4 4 2 1 2 6 5 3 2 3 2 2 4 1 3 2 2 3 3 2 3 2 4 4 6 8 8 9 10 7 4 3 7 9 5 4 7 6 8 13 16 18 19
7 2 2 4 0 2 5 5 3 1 5 4 4 4 3 4 2 2 2 2 2 2 2 2 2 3 3 1 3 6 10 8 4 4 7 13 19 8 11 10 14 15 17 15
6 6 4 3 2 4 3 4 3 4 3 3 4 7 6 3 5 5 3 1 6 3 2 2 2 0 3 3 5 1 4 9 7 2 4 5 3 5 1 8 16 7 2 4
9 8 6 6 4 4 6 5 5 4 2 3 5 3 3 4 3 2 2 4 2 2 2 2 2 2 1 3 3 5 4 4 11 11 8 10 10 8 2 5 7 4 2 7
10 10 9 7 6 8 6 3 4 4 2 4 7 6 4 4 4 3 6 4 2 2 2 2 2 4 3 3 5 3 6 4 5 4 5 11 14 5 6 10 8 5 6 5
13 11 11 9 7 8 8 7 8 10 6 5 7 10 17 11 3 5 9 1 3 4 2 1 2 2 1 5 4 9 6 10 7 11 7 9 8 15 20 19 21 16 12 8
12 13 11 10 9 7 9 9 9 13 6 8 15 13 12 21 22 13 5 6 6 6 3 5 2 4 3 5 7 10 12 22 14 14 15 21 29 29 24 17 15 14 12 9
11 12 11 10 8 7 8 9 6 9 3 3 2 8 8 6 13 21 25 7 10 6 9 3 2 3 10 3 6 5 9 8 15 20 22 32 29 20 25 9 13 15 14 13
11 10 10 9 8 10 8 10 11 10 5 1 2 6 12 11 12 12 17 21 11 5 4 3 4 3 2 4 2 9 16 18 14 16 26 27 28 25 24 18 14 10 9 9
12 13 10 8 7 7 7 4 7 12 11 2 1 4 4 4 5 10 12 13 15 11 7 5 5 5 5 3 4 15 20 25 32 30 33 32 33 26 26 16 10 8 9 10
11 10 8 7 7 8 4 3 3 7 14 4 2 3 2 1 4 5 6 11 7 9 5 6 4 7 10 3 12 39 31 29 32 34 32 30 24 18 19 17 13 12 9 8
5 7 8 7 8 6 9 8 3 10 7 4 1 2 3 1 2 4 4 4 5 7 4 4 4 6 7 6 22 24 22 20 21 23 19 20 21 19 15 13 10 8 4 3
10 10 8 8 6 5 4 5 7 9 4 3 3 2 0 4 3 3 2 1 2 2 3 4 4 4 6 15 15 18 19 20 23 20 17 16 15 14 10 11 9 6 5 7
13 11 5 4 4 5 4 4 5 10 6 5 3 3 1 3 3 2 2 2 2 2 2 2 3 7 23 29 32 30 29 30 21 18 14 14 11 13 12 11 8 8 8 8
14 7 5 5 7 6 3 1 2 2 3 5 4 10 3 5 2 2 2 0 0 3 1 2 3 4 14 24 22 25 26 24 22 18 18 16 12 14 14 11 10 9 8 8
12 8 10 8 4 3 1 2 2 4 4 4 4 4 3 4 5 3 5 3 3 5 3 3 4 5 5 6 8 11 11 10 10 11 10 11 12 11 12 10 8 8 9 11
13 4 6 5 4 5 6 7 4 4 6 7 5 3 4 4 4 2 2 4 5 1 4 5 5 3 4 6 8 8 7 7 8 9 10 10 12 13 10 7 7 10 13 16
5 6 5 6 6 6 5 3 2 4 6 13 10 6 4 3 4 2 4 4 2 5 5 7 4 5 4 5 6 6 7 7 9 11 12 13 12 10 9 10 12 14 16 16
6 6 5 7 6 3 3 6 7 5 13 16 7 4 5 3 3 4 4 4 6 6 5 2 2 4 4 7 7 7 8 10 12 14 15 14 13 12 12 14 15 16 17 20
5 7 3 2 3 5 6 9 9 12 17 9 4 3 3 6 4 7 8 4 7 4 3 6 6 6 8 9 9 10 11 13 15 17 18 17 15 15 15 16 17 19 21 24
6 6 12 7 5 5 6 13 12 18 18 3 4 5 10 2 4 4 4 6 6 3 7 9 9 9 10 11 11 12 13 15 18 20 20 18 17 17 17 18 19 22 24 26

GFSNW_850_spd_006.txt.gz
Wind_Speed
9 14 13 14 13 10 4 5 1 16 3 3 5 4 3 8 3 3 3 8 10 8 9 5 3 4 5 3 1 2 2 2 4 2 2 3 2 3 7 2 1 2 3 5
9 12 13 12 12 13 6 3 3 18 12 4 5 6 6 7 6 7 4 4 3 2 4 5 5 6 6 6 5 2 3 1 4 2 2 3 2 2 3 5 2 3 3 4
10 10 11 10 10 10 6 4 1 7 18 19 8 8 6 4 5 4 8 2 6 6 7 7 6 6 2 2 4 3 2 2 2 2 5 3 3 2 2 3 2 3 8 9
10 9 8 8 7 8 4 6 2 1 2 6 7 6 4 6 3 3 6 4 7 3 5 6 5 5 5 4 1 2 3 1 5 5 3 2 5 7 8 10 12 6 14 12
9 8 7 6 5 6 6 4 1 3 4 1 3 2 3 7 5 7 4 6 5 8 8 7 4 5 2 4 0 2 4 1 2 2 7 4 6 12 11 14 16 15 16 20
9 6 7 6 3 5 4 5 4 3 1 1 2 2 4 6 2 6 9 6 5 11 8 12 11 9 7 4 3 3 2 1 3 3 4 4 9 13 14 11 11 9 13 16
5 5 5 4 3 5 6 4 4 3 2 0 3 4 4 7 7 4 6 10 5 3 4 5 3 4 4 4 3 3 1 2 1 3 4 4 8 4 5 5 7 10 12 10
4 4 3 3 2 2 5 6 4 4 3 6 5 5 5 8 6 5 8 7 4 1 3 2 2 2 2 3 6 5 3 2 2 3 4 7 10 6 2 1 5 6 7 9
6 5 4 2 1 2 3 4 7 4 2 2 4 5 3 2 3 3 3 2 3 3 1 1 2 3 3 4 4 2 1 3 2 2 2 5 2 4 11 4 5 3 7 6
8 7 6 6 3 2 3 2 3 4 3 4 7 2 2 2 3 3 3 3 3 3 1 2 2 1 2 2 3 4 3 2 6 6 4 6 9 12 6 1 3 4 4 5
6 8 8 7 7 5 5 2 4 2 2 3 6 7 5 6 4 3 7 4 1 1 3 2 2 2 2 0 2 3 6 6 4 3 3 6 2 6 2 5 14 8 6 8
7 7 8 9 8 10 8 5 6 4 3 4 7 12 11 9 7 7 13 1 4 4 3 1 2 1 2 1 2 1 4 5 2 6 5 6 1 13 16 25 21 14 13 4
7 5 7 8 9 8 10 7 4 6 3 5 7 5 10 14 14 8 3 2 3 3 3 4 2 2 3 4 5 7 5 15 7 7 2 7 21 31 19 22 17 16 16 15
6 6 6 8 9 9 9 7 4 7 1 2 2 1 2 5 11 20 12 5 6 7 5 3 2 2 7 3 4 5 5 10 5 7 15 22 18 18 14 15 14 13 13 13
7 6 7 8 9 9 10 8 8 10 4 1 4 5 6 7 6 10 17 17 6 5 4 2 3 2 1 2 2 7 11 9 4 7 15 19 20 23 25 21 18 13 12 14
8 7 8 8 8 9 8 4 9 12 11 1 1 3 4 9 10 11 7 12 12 7 6 4 4 5 5 2 3 11 17 15 18 15 19 21 22 24 15 14 14 13 12 14
8 7 10 10 11 11 5 3 3 9 13 3 2 2 3 4 7 7 10 12 7 8 8 6 5 6 9 2 6 9 17 23 24 21 19 21 18 14 17 18 18 17 14 14
5 9 11 11 10 11 7 4 6 10 8 3 1 1 3 7 4 4 6 6 6 7 5 4 4 8 7 5 12 12 14 13 13 13 15 17 17 15 18 17 15 13 10 9
10 12 11 12 9 7 7 5 4 8 3 3 2 1 1 6 3 5 4 4 2 6 3 3 6 3 6 8 9 17 15 10 15 18 20 22 21 22 18 14 12 11 8 5
15 15 5 5 8 10 8 6 6 6 4 4 3 3 2 3 4 2 4 2 1 1 2 3 3 4 22 26 28 24 18 23 27 21 19 19 19 17 13 10 8 7 7 7
16 7 4 9 13 6 3 3 3 3 2 5 4 7 3 3 2 2 2 2 2 3 2 2 3 4 7 15 16 14 12 11 12 15 15 17 15 10 9 10 10 9 9 9
13 7 12 11 3 2 2 3 3 3 3 5 4 4 4 4 3 3 1 1 1 3 4 2 3 4 12 9 7 8 11 14 16 17 17 14 10 9 10 10 10 9 9 10
15 5 5 3 2 3 5 6 3 3 6 6 5 3 3 3 2 4 1 1 2 1 1 4 5 3 5 6 8 10 10 11 13 13 11 9 9 10 10 10 9 8 9 10
4 7 5 5 4 4 4 2 4 5 6 15 14 6 3 3 2 2 2 1 1 3 3 7 3 12 12 9 8 9 9 11 12 11 10 11 11 11 11 9 8 9 11 14
5 5 5 7 4 4 7 13 11 8 17 17 9 5 4 2 2 3 2 4 4 4 5 3 2 4 7 8 9 10 11 12 12 12 13 13 13 14 13 11 11 12 14 17
5 5 1 2 5 3 4 9 9 14 21 10 5 3 3 4 3 5 7 3 6 4 3 8 8 10 11 11 10 11 12 13 13 14 14 14 16 16 14 14 14 15 17 20
4 4 14 7 3 7 10 12 11 18 17 3 4 5 9 2 3 4 4 5 3 5 10 10 11 12 11 11 11 14 14 13 13 14 15 17 17 18 17 16 16 18 20 22

GFSNW_850_spd_012.txt.gz
Wind_Speed
13 10 11 13 13 14 3 1 1 7 2 2 2 2 0 5 1 8 1 15 13 7 5 4 3 4 3 2 5 6 3 6 4 3 1 2 3 6 5 4 3 1 3 5
10 9 10 10 10 11 7 4 3 2 5 2 1 2 4 2 4 2 8 4 5 1 2 5 3 4 1 4 3 6 5 2 4 2 3 2 4 4 4 5 3 4 4 5
9 7 8 8 7 9 7 3 1 3 3 4 5 4 3 1 4 7 5 4 8 5 5 6 4 4 2 2 3 3 2 3 5 6 3 4 5 5 5 5 3 4 5 2
9 7 7 6 6 7 2 1 2 1 1 3 3 3 2 2 4 4 3 6 5 4 4 4 4 2 2 4 2 3 3 4 2 3 3 3 4 6 9 7 4 6 1 5
11 6 6 5 5 5 2 3 1 2 2 0 4 4 1 3 2 4 4 6 5 7 5 1 5 5 2 2 4 3 4 2 2 3 4 3 3 4 5 5 3 6 2 9
11 6 6 5 4 3 3 3 2 1 5 2 3 2 4 3 6 7 9 9 11 12 2 6 11 13 11 5 4 2 2 3 2 2 3 4 6 6 5 3 4 5 4 4
10 6 5 5 3 1 3 4 4 2 0 1 1 3 3 4 1 6 4 7 5 5 4 11 14 21 18 16 8 4 4 4 2 2 2 1 2 3 6 5 2 2 4 5
9 7 6 4 2 0 2 2 3 2 2 2 5 6 6 9 12 6 4 5 6 7 5 4 4 4 3 5 6 6 3 4 3 4 3 5 2 3 4 4 2 3 5 2
11 9 8 7 3 3 2 1 4 3 6 3 6 5 5 4 3 3 3 5 6 4 3 3 4 4 3 3 2 6 5 6 4 2 3 5 2 3 2 1 3 4 3 2
12 11 9 6 5 4 3 3 3 3 6 3 10 3 5 6 4 4 2 3 3 2 2 3 2 2 2 4 6 4 3 3 5 2 2 6 5 7 1 4 3 6 10 11
11 15 11 8 7 4 4 4 3 3 4 7 4 4 5 5 5 5 7 5 1 2 3 3 2 3 3 2 4 5 5 5 3 2 2 6 3 1 3 4 4 7 9 9
11 13 15 12 11 7 6 4 4 6 4 5 6 7 7 4 5 6 9 2 3 5 4 2 3 2 1 3 2 1 2 5 4 7 5 2 9 12 10 5 2 2 5 5
11 11 14 15 13 10 8 5 5 4 5 5 5 4 5 4 3 5 5 3 4 3 4 5 2 2 3 4 4 2 2 3 2 2 0 7 8 9 1 2 1 1 2 4
12 11 11 14 13 11 8 9 7 6 5 4 2 4 4 4 9 6 3 4 8 10 5 4 2 2 4 3 2 3 6 3 3 3 6 2 10 2 3 1 4 6 5 6
12 11 9 11 13 11 9 8 8 7 2 4 5 4 3 2 4 10 5 9 11 6 4 3 1 1 3 2 2 3 6 6 4 4 6 3 2 5 9 10 7 6 9 11
13 12 13 10 10 12 10 3 7 7 6 3 2 2 1 3 5 8 10 8 6 4 5 3 1 2 2 2 2 8 10 8 8 4 4 6 10 7 4 6 9 11 12 13
15 14 15 14 15 13 7 3 3 12 12 3 2 2 4 10 10 8 9 8 4 4 5 3 2 1 2 2 4 8 5 8 6 5 4 2 3 5 13 13 12 12 11 10
18 18 16 15 14 13 6 4 7 13 6 2 3 1 3 8 3 3 4 4 4 3 4 4 3 2 1 4 5 4 7 2 5 5 6 5 7 11 13 14 12 10 7 6
23 21 18 15 11 7 8 7 12 15 4 5 3 4 3 6 4 4 3 3 2 2 2 2 5 3 5 5 3 7 5 5 2 6 8 11 16 15 11 10 10 10 8 7
27 26 8 7 10 9 11 5 2 4 4 3 1 6 2 5 3 3 3 3 1 1 0 7 1 4 14 15 12 10 11 12 12 12 14 15 10 10 11 11 8 7 7 7
27 9 5 16 20 9 3 2 2 2 1 6 6 6 4 3 3 2 3 2 0 2 2 2 2 3 3 5 3 6 7 8 7 6 6 6 9 9 8 8 6 7 9 10
14 10 19 18 5 4 4 3 2 3 5 6 5 6 7 6 5 4 2 3 1 3 3 2 3 3 5 4 2 5 4 2 1 3 6 9 9 7 7 7 8 9 11 11
23 6 7 6 3 3 8 9 4 4 7 9 8 4 7 5 4 5 3 3 2 8 2 3 4 7 5 3 2 0 1 2 3 6 11 12 10 9 8 8 8 10 11 10
6 7 6 5 5 6 5 4 4 7 15 23 20 7 4 4 3 2 4 2 3 3 3 5 3 3 1 4 4 5 6 6 7 9 14 13 11 10 10 9 9 11 12 11
5 6 6 6 4 1 5 7 11 8 30 28 14 7 4 2 3 2 3 3 4 5 4 3 7 6 6 3 5 9 12 11 11 11 16 16 14 13 12 12 12 13 13 13
6 4 3 6 6 2 6 8 10 24 29 19 7 4 4 3 3 4 4 7 6 3 3 9 11 5 5 5 7 10 14 16 15 14 17 17 17 16 13 13 15 15 16 16
5 2 4 8 7 8 8 13 15 28 18 3 4 5 5 3 3 2 3 4 3 9 13 12 9 4 8 9 9 12 14 17 17 17 18 19 17 16 16 16 14 15 17 18

GFSNW_850_spd_015.txt.gz
Wind_Speed
17 15 16 16 15 13 6 4 1 3 12 2 0 2 2 4 2 4 4 9 12 5 10 8 5 6 2 4 9 6 2 5 4 3 1 3 3 6 6 4 4 2 3 5
15 14 13 13 14 12 12 4 2 8 11 2 2 2 3 2 2 4 3 7 4 10 11 6 2 4 2 6 4 6 5 1 4 2 4 3 3 4 4 4 3 5 5 5
13 12 10 10 11 11 10 3 1 4 10 4 4 5 1 1 4 3 3 5 6 5 4 4 4 3 3 5 4 7 6 3 6 8 5 6 5 5 5 5 4 4 6 4
13 10 9 9 9 9 7 2 3 1 2 2 2 3 3 2 3 3 10 4 3 4 4 3 5 3 4 4 5 2 4 4 3 4 4 4 5 7 10 7 5 7 3 7
12 10 9 8 8 8 5 2 2 1 2 2 4 2 1 3 1 2 4 4 5 5 3 3 6 7 3 4 2 2 2 2 3 2 3 3 1 3 7 4 3 5 4 4
12 9 10 8 6 6 4 3 4 2 3 1 2 2 5 5 7 4 3 16 14 12 2 4 11 12 12 6 5 3 3 5 3 3 3 2 4 8 7 4 4 5 5 2
12 8 9 7 5 6 6 5 4 1 2 0 1 3 2 5 1 6 3 6 5 8 19 22 14 20 18 14 8 6 5 4 2 2 1 2 2 3 4 5 3 4 6 4
13 9 10 7 6 4 4 4 4 3 2 1 4 5 5 7 11 6 5 6 7 16 7 4 5 3 4 6 7 7 4 4 3 4 3 3 2 3 6 5 2 3 4 4
13 11 11 9 6 5 4 1 3 1 4 3 5 4 3 4 4 3 4 7 10 4 3 3 3 4 3 2 3 4 4 5 3 2 4 5 2 1 3 4 2 2 3 4
13 13 11 11 9 7 6 3 2 0 4 3 5 3 5 6 5 4 2 4 3 2 2 3 2 2 2 4 6 3 3 3 3 2 2 5 5 3 2 4 4 5 8 6
14 15 13 12 10 8 7 5 3 3 3 4 3 2 4 5 5 5 7 5 2 3 3 3 3 3 4 3 4 5 6 6 4 3 2 6 1 2 4 6 8 8 3 3
15 16 16 12 11 8 7 7 6 6 3 4 6 7 7 4 4 7 10 1 3 6 4 1 3 2 2 4 3 1 2 5 5 6 4 2 4 12 15 9 7 2 2 2
16 16 17 15 13 11 10 7 8 6 6 6 5 4 4 5 5 5 4 3 5 4 3 4 3 3 3 4 4 2 1 3 3 3 2 5 10 12 6 4 4 3 4 4
16 16 17 17 15 11 10 9 8 7 5 4 3 4 4 3 5 3 2 5 8 9 4 3 2 3 2 3 2 3 3 5 5 1 2 5 5 6 5 6 7 6 5 4
16 15 14 16 15 12 9 9 8 7 3 4 4 5 4 3 5 4 5 9 11 5 3 3 2 3 4 2 2 2 6 6 4 4 7 5 6 7 4 4 3 2 3 6
17 15 14 14 15 14 9 4 6 8 8 5 2 2 3 4 7 10 10 9 7 5 4 2 3 3 3 3 2 4 5 3 2 4 10 7 4 4 4 1 4 5 7 9
19 17 17 15 17 17 10 3 4 11 7 3 3 1 1 8 7 6 7 6 5 4 4 2 3 3 3 3 3 5 3 7 6 5 5 5 7 5 1 4 6 7 9 10
20 18 18 17 15 15 8 4 9 13 8 3 3 1 1 3 3 3 3 3 4 4 3 2 2 4 2 2 6 2 6 8 7 4 2 4 3 1 6 9 10 11 10 9
22 21 18 15 11 6 8 8 11 12 4 6 3 4 3 5 3 3 4 3 2 2 1 0 2 1 3 3 6 7 8 4 7 4 3 4 7 11 10 8 10 12 10 9
27 25 8 6 10 13 13 6 4 4 3 2 2 6 3 5 3 3 2 4 1 1 0 2 1 3 11 10 9 5 8 10 6 6 9 9 10 6 7 10 11 10 8 8
28 8 4 16 21 7 3 3 2 3 1 6 7 5 5 4 3 2 2 2 1 2 2 2 1 3 3 3 4 11 16 16 11 5 3 1 3 7 9 10 10 9 10 10
15 12 20 20 5 3 4 3 2 3 5 6 5 7 8 6 4 4 1 2 1 4 3 2 3 3 4 5 7 11 11 11 8 6 3 4 8 10 11 11 10 10 10 11
24 8 8 7 4 3 7 9 4 4 7 11 10 5 7 6 4 4 2 3 3 7 2 3 4 4 5 8 9 9 8 7 6 4 1 7 10 12 12 11 11 11 12 13
5 6 6 5 5 5 5 4 4 6 11 23 19 7 4 5 3 3 4 1 3 2 1 5 3 7 9 10 8 5 4 3 5 6 6 9 13 15 14 14 13 13 14 14
4 5 5 7 3 2 4 9 10 9 26 27 14 8 5 2 4 2 4 4 4 6 5 3 9 15 16 10 4 1 4 8 10 11 12 12 14 16 16 15 15 14 14 16
3 3 3 2 4 2 5 8 9 21 27 23 7 4 3 2 4 4 6 7 6 4 3 11 17 16 8 5 3 2 6 10 13 16 16 17 16 17 17 16 18 17 17 17
3 2 6 10 2 7 8 10 15 30 24 3 3 5 6 3 3 2 3 4 3 6 13 21 15 10 5 4 4 6 7 10 13 15 17 18 18 18 19 21 19 17 16 17

GFSNW_850_spd_018.txt.gz
Wind_Speed
20 16 18 16 16 12 8 4 1 10 22 4 5 3 1 4 6 3 5 6 4 14 11 9 7 9 4 17 15 13 7 6 4 3 3 4 4 7 6 5 4 1 3 6
19 15 17 15 14 9 8 2 4 14 15 3 2 2 2 1 1 3 8 5 5 18 6 7 2 7 9 16 8 8 6 2 5 3 1 2 3 3 4 5 3 7 6 5
17 14 16 12 10 8 7 3 2 5 13 8 3 3 3 4 5 3 0 10 17 9 5 6 5 7 3 7 5 9 7 3 6 8 5 6 6 6 5 6 4 5 6 4
17 13 13 11 9 7 6 4 3 3 3 4 4 3 2 3 1 1 8 4 3 8 5 5 4 3 5 3 10 4 3 3 3 2 4 5 7 9 10 9 6 7 5 8
17 14 12 12 8 6 7 4 2 3 2 1 2 3 0 2 2 5 2 7 5 4 5 4 8 7 5 5 2 3 2 2 3 3 2 3 3 4 8 5 4 3 5 4
17 14 12 12 9 7 5 6 5 2 1 2 1 1 2 4 4 7 5 6 5 12 0 3 11 10 10 9 7 4 7 5 3 3 1 3 4 8 8 5 4 7 7 7
17 14 12 12 9 9 9 8 5 3 2 2 1 1 2 4 2 6 1 4 4 8 21 16 20 23 18 14 7 3 6 5 2 3 2 1 3 1 6 8 2 4 5 5
16 14 12 12 10 8 8 9 7 5 1 1 2 3 4 8 12 5 4 2 4 22 4 4 5 4 3 5 6 6 2 5 3 4 4 3 0 4 6 6 2 1 6 5
16 14 13 12 11 8 8 6 8 3 4 3 3 4 2 3 3 4 3 6 14 5 4 3 4 4 5 3 2 4 4 6 4 2 4 6 1 3 7 4 2 4 8 5
17 15 15 13 13 10 8 6 7 4 5 3 4 2 4 5 3 4 3 4 3 3 3 3 3 3 3 4 7 5 3 3 4 3 2 6 3 2 4 5 3 9 11 10
17 16 16 13 13 11 9 7 6 4 4 6 4 3 4 5 2 4 7 5 0 2 2 3 3 3 4 3 4 5 5 6 3 3 2 7 4 4 6 5 15 15 11 8
19 17 17 15 13 12 11 7 6 7 3 6 10 9 7 5 5 5 8 1 3 5 4 1 3 2 1 3 3 2 2 4 4 6 3 0 3 4 21 17 18 10 8 7
20 18 18 17 15 13 11 8 10 8 7 8 6 6 7 7 6 7 4 2 4 3 3 4 2 3 3 4 4 3 1 2 3 3 1 3 15 18 13 12 11 9 7 7
20 18 17 19 17 13 12 10 11 6 6 4 3 5 4 3 5 4 2 4 7 8 4 3 2 3 3 3 2 2 3 5 4 1 3 5 8 9 11 11 8 6 5 5
21 18 16 17 17 15 11 10 9 9 3 4 5 7 4 2 4 3 5 9 10 5 3 2 2 3 4 1 2 2 5 6 5 5 12 5 9 13 9 7 7 6 6 6
21 18 17 16 17 15 13 4 7 9 11 6 2 3 3 6 7 8 8 7 4 4 4 2 3 3 3 3 3 3 9 8 5 4 14 8 17 11 11 10 7 6 5 6
23 20 18 18 20 21 6 4 11 13 9 4 3 1 2 9 9 5 5 5 4 3 4 3 3 3 5 2 3 3 7 12 13 16 14 10 14 9 11 6 4 5 5 6
25 22 19 20 17 15 7 5 13 12 6 3 3 1 1 3 3 3 4 3 3 4 3 3 2 3 2 2 4 4 9 14 13 14 8 9 13 11 6 4 5 6 6 7
29 26 22 18 10 8 9 8 12 8 5 6 3 5 4 5 3 4 3 2 2 1 1 1 2 1 4 5 10 15 16 13 15 14 13 13 9 6 4 3 4 5 6 6
32 28 9 6 12 14 12 5 3 3 0 3 2 5 3 5 2 2 2 3 1 1 0 1 1 3 5 9 9 11 15 13 20 13 9 10 6 5 3 2 4 6 7 5
29 9 4 22 24 9 2 3 3 1 1 5 5 5 5 3 3 2 2 2 1 2 1 2 2 3 4 8 15 15 16 18 13 2 6 9 6 2 1 4 5 7 8 6
14 12 23 19 5 4 4 3 1 3 5 5 5 7 8 6 4 3 1 2 2 2 1 1 3 3 5 4 7 12 18 18 12 12 10 6 3 3 5 6 7 8 8 8
30 8 7 6 3 3 7 8 4 3 6 11 9 5 7 5 4 4 2 3 3 3 0 3 4 2 7 11 13 17 19 18 16 13 8 4 3 6 7 8 8 9 9 10
5 5 5 5 4 5 4 4 4 5 8 21 19 6 3 5 2 2 4 1 3 3 3 6 3 13 14 16 16 15 15 13 10 8 6 3 3 5 8 9 10 11 11 11
3 5 4 4 3 3 4 7 8 7 25 27 14 8 5 2 4 2 3 4 4 6 5 3 11 19 21 18 15 12 8 5 3 4 6 8 9 9 9 10 11 12 13 14
3 3 4 5 3 2 4 9 8 20 27 21 7 3 3 2 5 4 6 6 6 4 3 9 24 24 19 14 11 8 5 3 3 5 8 10 11 12 13 13 14 14 14 14
4 2 3 10 3 6 8 12 14 28 22 3 3 4 4 3 3 3 3 5 3 4 14 28 26 19 14 10 7 5 3 2 5 9 11 12 13 14 15 15 13 13 13 13

GFSNW_850_spd_024.txt.gz
Wind_Speed
19 18 18 15 14 13 12 5 3 6 27 6 5 11 6 5 8 22 11 6 12 16 20 16 16 14 10 24 19 7 9 8 5 2 1 5 10 11 14 5 5 1 3 1
21 18 16 15 15 14 9 5 4 16 38 6 7 8 10 8 5 10 14 12 16 14 17 11 13 14 16 29 21 11 11 6 9 6 3 2 5 6 15 7 2 10 8 3
20 17 16 16 15 15 14 6 4 7 21 9 3 8 11 10 19 13 10 11 15 18 19 9 18 10 12 28 26 21 5 4 12 12 5 11 10 17 15 17 12 9 11 7
20 17 15 16 16 15 15 9 5 7 5 11 14 8 7 13 6 16 20 10 10 20 13 18 13 14 11 15 23 13 5 6 8 7 5 15 14 17 21 21 21 14 16 17
20 17 15 16 17 15 19 6 4 5 4 11 11 9 6 8 8 7 10 12 20 20 13 12 19 17 15 13 17 20 9 7 5 4 4 12 11 19 23 26 23 22 19 15
19 18 15 17 20 19 14 10 9 3 3 4 4 3 4 5 3 2 3 19 18 16 16 12 20 20 15 13 20 19 13 6 6 4 3 5 9 17 19 21 21 21 19 21
22 19 15 18 23 21 19 9 6 4 4 5 4 3 1 3 0 3 4 18 18 6 16 22 19 13 5 19 14 10 12 11 1 3 6 4 2 2 16 22 18 19 16 3
19 20 16 18 23 21 20 19 9 5 4 4 2 4 2 4 5 4 3 4 6 15 7 9 6 3 4 2 4 4 1 6 2 3 7 6 3 5 7 12 15 14 15 9
22 20 16 19 23 20 19 18 15 6 2 3 2 2 8 3 2 2 4 7 8 4 2 3 3 4 5 5 2 5 6 4 4 3 4 6 1 4 6 6 8 14 15 16
21 18 14 20 23 20 19 13 16 9 3 3 4 3 4 6 5 3 2 1 3 4 2 2 3 3 3 7 10 6 3 3 8 6 3 6 3 6 7 6 0 13 19 22
21 17 14 21 22 20 19 16 14 14 5 4 5 3 2 5 6 4 7 4 2 2 2 2 2 3 4 4 7 10 8 7 4 5 6 8 8 5 7 3 14 17 19 17
19 20 14 22 22 20 18 14 16 15 5 2 3 3 4 4 7 11 18 1 8 9 3 2 2 3 3 6 6 1 7 5 4 8 3 2 1 2 2 11 20 14 18 16
23 21 15 21 23 21 19 18 16 15 6 3 3 3 3 3 5 13 5 4 8 8 7 3 2 2 3 5 4 4 3 3 2 4 2 1 3 6 12 17 20 20 19 17
24 18 18 21 24 21 19 19 19 13 6 2 2 4 2 2 4 9 5 7 10 11 6 2 2 2 3 2 2 2 1 9 6 2 1 5 4 11 22 21 21 20 17 14
26 19 21 23 25 17 16 18 18 17 4 3 5 6 3 3 3 4 6 10 11 5 2 2 2 3 3 1 1 3 7 6 5 3 17 3 19 21 21 23 21 18 17 16
25 20 23 24 24 16 17 7 12 19 10 4 4 4 4 6 7 9 9 8 5 4 3 3 3 2 1 3 3 1 9 8 5 2 16 6 20 23 21 19 17 15 13 12
23 23 23 25 24 16 4 3 9 18 14 3 3 2 4 8 6 5 4 4 4 3 3 2 4 3 4 2 4 5 13 10 7 11 19 11 21 16 21 17 17 15 14 12
25 25 24 23 22 17 6 3 12 17 6 3 3 1 2 6 3 3 3 2 3 5 3 2 2 5 3 4 5 10 14 13 14 18 9 13 23 24 21 18 16 15 13 11
30 29 26 21 16 9 9 10 11 7 4 6 3 5 3 7 3 3 3 2 2 2 1 1 2 3 5 5 9 19 22 19 21 15 12 20 24 24 22 18 16 14 13 11
36 33 12 6 13 19 18 6 5 2 0 3 2 4 2 3 2 2 2 3 1 1 1 0 2 4 9 7 9 16 21 17 27 23 18 21 23 22 19 15 13 12 10 8
34 10 6 21 29 10 3 3 2 1 1 3 5 4 4 3 2 3 1 2 0 3 1 2 2 4 4 11 13 17 24 18 23 21 20 22 22 20 17 16 12 9 7 5
17 14 27 21 6 4 4 3 2 3 4 6 4 6 6 4 4 3 2 2 1 3 2 1 4 3 0 9 15 20 23 23 19 17 18 19 15 16 14 10 8 7 6 5
34 13 7 6 1 3 9 10 4 4 6 10 8 5 5 4 3 4 2 2 2 4 2 4 4 1 6 13 17 23 22 21 17 20 22 21 18 14 11 9 7 6 5 5
4 5 7 6 5 6 5 5 4 5 11 22 18 7 3 4 2 2 3 2 3 3 3 5 1 5 10 13 20 29 28 22 24 23 20 16 14 12 10 8 6 5 5 5
4 4 3 3 4 3 3 6 8 7 25 27 13 8 5 3 4 1 4 4 4 5 4 2 3 13 14 17 24 30 25 22 22 18 15 12 9 8 6 6 5 5 5 5
3 4 4 5 4 2 4 5 6 20 27 21 4 4 3 2 5 5 6 7 6 3 2 5 17 19 19 22 28 27 24 22 16 12 9 7 6 5 6 6 6 6 5 5
2 2 5 4 4 5 6 7 10 23 18 3 2 4 2 5 3 4 4 4 1 3 7 21 25 26 25 26 25 23 20 16 13 9 6 4 4 5 6 5 4 4 5 6

GFSNW_850_spd_027.txt.gz
Wind_Speed
19 24 26 20 17 17 18 12 3 16 30 8 5 9 7 5 8 20 13 7 8 12 21 21 18 16 13 20 13 8 8 6 3 3 2 8 9 9 9 7 5 3 5 5
15 25 25 19 18 23 20 9 6 15 37 6 7 10 8 10 8 11 9 10 13 17 19 17 16 15 17 14 17 10 11 4 4 3 4 1 11 11 15 11 2 11 6 6
22 17 24 20 19 23 19 8 4 8 21 13 5 11 9 8 13 17 12 9 13 16 16 16 15 14 14 17 19 21 9 8 8 3 6 12 11 15 15 15 10 9 11 7
27 18 27 21 18 22 20 12 5 8 5 9 15 9 6 6 5 12 16 10 17 18 16 20 13 17 13 13 22 16 3 6 8 7 4 13 15 17 19 19 19 12 13 14
22 12 24 19 19 23 24 9 5 5 4 18 15 15 6 16 12 7 12 6 22 20 17 19 16 17 16 9 17 19 13 5 2 8 5 8 11 17 20 22 22 20 17 13
19 1 19 18 20 29 16 17 10 3 5 11 12 9 6 8 8 11 11 22 19 20 20 23 10 22 20 7 16 18 13 6 3 6 6 6 11 19 19 18 23 20 20 20
21 16 21 20 22 30 26 12 8 5 8 10 11 5 4 9 3 2 8 22 21 14 8 11 16 19 13 10 15 18 18 14 3 2 6 7 2 4 17 20 19 20 20 16
24 24 17 26 22 28 28 25 10 4 7 10 8 4 3 1 4 3 5 6 6 16 20 7 8 2 4 7 5 14 15 13 6 4 8 8 10 5 6 12 18 20 18 16
24 13 26 23 21 25 27 27 22 8 5 2 2 2 5 2 1 2 4 4 7 8 7 1 3 4 4 4 4 4 7 11 9 3 4 4 4 3 2 5 9 11 17 14
23 12 20 20 20 24 27 21 21 12 8 7 2 2 4 7 3 3 1 2 2 1 3 4 4 4 7 6 9 7 4 2 11 6 3 7 3 5 6 5 2 1 8 15
25 14 17 21 21 25 25 23 21 17 8 5 3 3 4 2 4 4 6 4 1 1 2 2 2 4 7 6 10 12 5 5 4 3 3 7 8 5 5 3 7 9 13 17
26 14 22 20 23 27 25 20 18 21 7 3 4 7 7 8 6 7 13 1 5 5 3 1 2 2 3 7 6 4 9 7 6 10 6 2 6 3 3 5 11 13 19 17
23 12 25 19 24 24 24 23 16 19 7 6 4 3 3 5 8 12 5 3 6 5 4 2 1 2 2 5 4 8 4 3 3 3 5 2 5 1 3 10 13 17 18 19
20 13 23 19 24 23 23 21 17 20 5 3 3 5 4 3 5 14 10 8 10 13 7 2 2 2 2 0 2 4 1 9 7 1 2 2 7 8 12 15 17 20 17 14
20 18 22 22 23 22 19 17 20 22 4 0 3 5 3 3 4 8 8 11 11 8 5 4 3 3 3 1 1 3 7 6 6 4 12 3 9 16 17 19 19 18 18 16
20 25 21 23 24 24 15 9 22 22 7 3 3 2 3 6 6 8 9 8 5 3 1 2 2 1 2 3 3 2 14 7 3 1 14 4 18 19 17 19 17 15 13 13
21 28 24 25 23 22 11 4 5 22 17 3 2 2 3 7 6 3 3 3 3 2 2 1 2 3 3 1 3 7 14 10 8 13 18 14 17 13 17 19 18 16 15 14
28 27 26 24 23 17 8 2 13 22 8 4 2 1 2 5 2 3 3 2 2 5 2 1 1 2 2 4 7 7 15 13 13 12 7 10 17 22 19 19 18 17 15 14
30 30 27 23 17 7 10 12 13 9 3 5 3 4 3 5 3 3 3 2 1 2 1 1 1 3 5 5 7 15 19 15 18 14 12 17 23 26 23 20 19 16 15 12
37 35 12 7 15 17 17 6 6 3 3 4 2 3 2 3 2 2 1 4 1 0 0 3 3 4 11 5 7 13 18 14 22 23 15 20 23 25 23 19 15 12 12 9
31 9 5 21 30 12 5 2 2 2 2 4 4 5 4 3 2 2 2 2 1 1 1 2 3 4 3 2 7 12 19 18 19 11 15 19 24 26 21 17 14 12 9 7
15 15 27 25 6 4 3 2 1 4 4 5 5 6 7 5 4 3 1 2 1 2 2 2 4 0 2 2 7 12 17 20 18 14 19 18 21 19 16 16 13 10 8 6
31 12 6 5 2 4 9 9 4 4 6 9 8 5 5 5 4 3 2 3 2 2 3 4 4 3 3 6 10 16 20 21 21 22 22 21 19 18 15 14 11 9 7 5
4 4 7 5 6 6 5 5 5 4 10 19 15 6 3 3 2 3 4 2 3 3 4 5 2 6 8 9 14 23 24 23 24 23 23 23 20 17 15 12 10 8 6 4
3 3 4 3 5 5 3 7 8 7 24 24 10 7 5 3 3 2 4 4 5 5 4 0 4 10 13 16 22 24 26 28 29 26 23 20 17 14 12 10 8 7 5 4
3 3 3 5 4 3 5 6 9 21 25 18 4 4 3 2 5 5 6 6 6 2 1 4 11 11 13 19 25 26 27 26 25 21 17 15 13 11 10 9 7 5 5 4
2 2 4 3 4 5 5 7 10 25 22 3 3 4 3 4 3 5 4 4 1 4 6 10 13 16 19 23 27 26 24 21 18 16 13 11 10 9 8 7 6 5 5 5